Time,TemperatureF,DewpointF,PressureIn,WindDirection,WindDirectionDegrees,WindSpeedMPH,WindSpeedGustMPH,Humidity,HourlyPrecipIn,Conditions,Clouds,dailyrainin,SolarRadiationWatts/m^2,SoftwareType,DateUTC
2013-01-13 00:00:00,68.9,65.5,29.68,SSW,206,5.0,10.0,89,0.03,RA,,0.00,0.0,WeatherDisplay:10.37,2013-01-13 06:00:00,
2013-01-13 00:10:00,68.3,65.6,29.68,South,190,6.0,14.0,91,0.08,RA,,0.08,0.0,WeatherDisplay:10.37,2013-01-13 06:10:00,
2013-01-13 00:20:00,67.7,65.3,29.69,SSW,192,7.0,15.0,92,0.12,RA,,0.20,0.0,WeatherDisplay:10.37,2013-01-13 06:20:00,
2013-01-13 00:30:00,67.5,65.4,29.68,SSW,211,7.0,12.0,93,0.04,RA,,0.24,0.0,WeatherDisplay:10.37,2013-01-13 06:30:00,
2013-01-13 00:40:00,66.5,64.4,29.70,West,271,10.0,19.0,93,0.06,RA,,0.30,0.0,WeatherDisplay:10.37,2013-01-13 06:40:00,
2013-01-13 00:50:00,52.7,48.6,29.72,NNW,329,24.0,33.0,86,0.04,RA,,0.34,0.0,WeatherDisplay:10.37,2013-01-13 06:50:00,
2013-01-13 01:00:00,48.5,46.5,29.73,NNW,332,17.0,31.0,93,0.03,RA,,0.37,0.0,WeatherDisplay:10.37,2013-01-13 07:00:00,
2013-01-13 01:10:00,47.4,45.7,29.75,NNW,342,9.0,26.0,94,0.13,RA,,0.50,0.0,WeatherDisplay:10.37,2013-01-13 07:10:00,
2013-01-13 01:20:00,46.7,45.4,29.76,NNW,337,13.0,20.0,95,0.18,RA,,0.68,0.0,WeatherDisplay:10.37,2013-01-13 07:20:00,
2013-01-13 01:30:00,45.9,44.5,29.79,NW,316,8.0,18.0,95,0.09,RA,,0.77,0.0,WeatherDisplay:10.37,2013-01-13 07:30:00,
2013-01-13 01:40:00,45.5,44.4,29.77,NNW,338,8.0,17.0,96,0.11,RA,,0.88,0.0,WeatherDisplay:10.37,2013-01-13 07:40:00,
2013-01-13 01:50:00,44.7,43.6,29.77,NNW,333,13.0,22.0,96,0.03,RA,,0.91,0.0,WeatherDisplay:10.37,2013-01-13 07:50:00,
2013-01-13 02:00:00,44.7,43.6,29.78,NNW,341,12.0,20.0,96,0.03,RA,,0.94,0.0,WeatherDisplay:10.37,2013-01-13 08:00:00,
2013-01-13 02:10:00,44.4,43.4,29.80,North,355,14.0,24.0,96,0.03,RA,,0.97,0.0,WeatherDisplay:10.37,2013-01-13 08:10:00,
2013-01-13 02:20:00,43.9,42.8,29.80,North,350,13.0,20.0,96,0.03,RA,,1.00,0.0,WeatherDisplay:10.37,2013-01-13 08:20:00,
2013-01-13 02:30:00,43.6,42.5,29.81,North,1,6.0,17.0,96,0.04,RA,,1.04,0.0,WeatherDisplay:10.37,2013-01-13 08:30:00,
2013-01-13 02:40:00,43.1,41.7,29.81,North,349,12.0,17.0,95,0.03,RA,,1.07,0.0,WeatherDisplay:10.37,2013-01-13 08:40:00,
2013-01-13 02:50:00,42.3,41.3,29.82,NNW,342,8.0,17.0,96,0.03,RA,,1.10,0.0,WeatherDisplay:10.37,2013-01-13 08:50:00,
2013-01-13 03:00:00,41.7,40.6,29.81,North,354,6.0,12.0,96,0.04,RA,,1.14,0.0,WeatherDisplay:10.37,2013-01-13 09:00:00,
2013-01-13 03:10:00,41.8,40.8,29.81,NNE,13,7.0,12.0,96,0.02,RA,,1.16,0.0,WeatherDisplay:10.37,2013-01-13 09:10:00,
2013-01-13 03:20:00,41.4,40.3,29.82,NNE,21,8.0,20.0,96,0.03,RA,,1.19,0.0,WeatherDisplay:10.37,2013-01-13 09:20:00,
2013-01-13 03:30:00,40.8,39.5,29.83,NNE,24,10.0,15.0,95,0.02,RA,,1.21,0.0,WeatherDisplay:10.37,2013-01-13 09:30:00,
2013-01-13 03:40:00,40.1,38.8,29.85,NNE,22,7.0,15.0,95,0.04,RA,,1.25,0.0,WeatherDisplay:10.37,2013-01-13 09:40:00,
2013-01-13 03:50:00,39.8,38.8,29.84,NNE,26,8.0,13.0,96,0.04,RA,,1.29,0.0,WeatherDisplay:10.37,2013-01-13 09:50:00,
2013-01-13 04:00:00,39.8,38.8,29.83,NE,49,7.0,12.0,96,0.05,RA,,1.35,0.0,WeatherDisplay:10.37,2013-01-13 10:00:00,
2013-01-13 04:10:00,39.7,38.7,29.83,NNE,29,7.0,12.0,96,0.06,RA,,1.40,0.0,WeatherDisplay:10.37,2013-01-13 10:10:00,
2013-01-13 04:20:00,39.8,38.8,29.82,NNE,30,3.0,10.0,96,0.04,RA,,1.44,0.0,WeatherDisplay:10.37,2013-01-13 10:20:00,
2013-01-13 04:30:00,40.0,38.9,29.85,North,359,6.0,8.0,96,0.03,RA,,1.47,0.0,WeatherDisplay:10.37,2013-01-13 10:30:00,
2013-01-13 04:40:00,40.0,38.9,29.85,NNW,334,6.0,9.0,96,0.05,RA,,1.52,0.0,WeatherDisplay:10.37,2013-01-13 10:40:00,
2013-01-13 04:50:00,39.6,38.6,29.82,NNE,21,7.0,10.0,96,0.05,RA,,1.57,0.0,WeatherDisplay:10.37,2013-01-13 10:50:00,
2013-01-13 05:00:00,39.7,38.7,29.82,NE,35,5.0,12.0,96,0.04,RA,,1.62,0.0,WeatherDisplay:10.37,2013-01-13 11:00:00,
2013-01-13 05:10:00,39.8,38.7,29.83,NNE,30,6.0,12.0,96,0.04,RA,,1.65,0.0,WeatherDisplay:10.37,2013-01-13 11:10:00,
2013-01-13 05:20:00,39.8,38.8,29.88,NW,318,6.0,12.0,96,0.05,RA,,1.70,0.0,WeatherDisplay:10.37,2013-01-13 11:20:00,
2013-01-13 05:30:00,39.5,38.5,29.88,NNW,336,5.0,14.0,96,0.08,RA,,1.78,0.0,WeatherDisplay:10.37,2013-01-13 11:30:00,
2013-01-13 05:40:00,39.1,38.1,29.90,NW,321,7.0,16.0,96,0.06,RA,,1.84,0.0,WeatherDisplay:10.37,2013-01-13 11:40:00,
2013-01-13 05:50:00,38.7,37.4,29.91,NW,324,8.0,15.0,95,0.02,RA,,1.87,0.0,WeatherDisplay:10.37,2013-01-13 11:50:00,
2013-01-13 06:00:00,38.4,37.1,29.90,NNW,328,9.0,18.0,95,0.02,RA,,1.88,0.0,WeatherDisplay:10.37,2013-01-13 12:00:00,
2013-01-13 06:10:00,38.1,36.8,29.91,NNW,332,6.0,17.0,95,0.02,RA,,1.90,0.0,WeatherDisplay:10.37,2013-01-13 12:10:00,
2013-01-13 06:20:00,38.0,36.7,29.89,North,0,6.0,14.0,95,0.02,RA,,1.92,0.0,WeatherDisplay:10.37,2013-01-13 12:20:00,
2013-01-13 06:30:00,38.0,36.7,29.90,North,8,7.0,12.0,95,0.01,RA,,1.94,0.0,WeatherDisplay:10.37,2013-01-13 12:30:00,
2013-01-13 06:40:00,37.9,36.6,29.86,NNE,31,10.0,14.0,95,0.02,RA,,1.95,0.0,WeatherDisplay:10.37,2013-01-13 12:40:00,
2013-01-13 06:50:00,37.9,36.6,29.87,North,5,8.0,14.0,95,0.00,OVC,,1.95,0.0,WeatherDisplay:10.37,2013-01-13 12:50:00,
2013-01-13 07:00:00,37.8,36.5,29.86,North,11,9.0,15.0,95,0.00,OVC,,1.95,0.0,WeatherDisplay:10.37,2013-01-13 13:00:00,
2013-01-13 07:10:00,37.8,36.5,29.86,North,11,9.0,16.0,95,0.00,OVC,,1.95,0.0,WeatherDisplay:10.37,2013-01-13 13:10:00,
2013-01-13 07:20:00,37.9,36.6,29.88,NNE,17,6.0,17.0,95,0.01,RA,,1.96,0.0,WeatherDisplay:10.37,2013-01-13 13:20:00,
2013-01-13 07:30:00,38.0,36.7,29.89,North,9,8.0,16.0,95,0.00,OVC,,1.96,0.0,WeatherDisplay:10.37,2013-01-13 13:30:00,
2013-01-13 07:40:00,37.8,36.3,29.90,North,8,6.0,17.0,94,0.00,OVC,,1.96,0.0,WeatherDisplay:10.37,2013-01-13 13:40:00,
2013-01-13 07:50:00,37.8,36.3,29.91,North,11,6.0,17.0,94,0.00,OVC,,1.96,0.0,WeatherDisplay:10.37,2013-01-13 13:50:00,
2013-01-13 08:00:00,37.8,36.2,29.93,NNW,345,12.0,17.0,94,0.03,RA,,1.99,0.0,WeatherDisplay:10.37,2013-01-13 14:00:00,
2013-01-13 08:10:00,37.6,36.3,29.92,North,351,8.0,17.0,95,0.09,RA,,2.08,0.0,WeatherDisplay:10.37,2013-01-13 14:10:00,
2013-01-13 08:20:00,37.6,36.3,29.92,North,7,10.0,13.0,95,0.05,RA,,2.13,0.0,WeatherDisplay:10.37,2013-01-13 14:20:00,
2013-01-13 08:30:00,37.7,36.7,29.90,NNE,17,8.0,15.0,96,0.03,RA,,2.16,0.0,WeatherDisplay:10.37,2013-01-13 14:30:00,
2013-01-13 08:40:00,37.7,36.7,29.90,NNE,23,12.0,15.0,96,0.02,RA,,2.18,0.0,WeatherDisplay:10.37,2013-01-13 14:40:00,
2013-01-13 08:50:00,37.8,36.8,29.92,North,1,7.0,20.0,96,0.02,RA,,2.20,0.0,WeatherDisplay:10.37,2013-01-13 14:50:00,
2013-01-13 09:00:00,37.8,36.5,29.92,NNW,341,9.0,16.0,95,0.02,RA,,2.22,0.0,WeatherDisplay:10.37,2013-01-13 15:00:00,
2013-01-13 09:10:00,37.7,36.4,29.92,North,9,7.0,17.0,95,0.03,RA,,2.25,0.0,WeatherDisplay:10.37,2013-01-13 15:10:00,
2013-01-13 09:20:00,37.7,36.7,29.93,NNE,12,6.0,14.0,96,0.04,RA,,2.29,0.0,WeatherDisplay:10.37,2013-01-13 15:20:00,
2013-01-13 09:30:00,37.7,36.4,29.93,North,11,8.0,15.0,95,0.05,RA,,2.34,0.0,WeatherDisplay:10.37,2013-01-13 15:30:00,
2013-01-13 09:40:00,37.7,36.7,29.93,North,6,8.0,13.0,96,0.04,RA,,2.38,0.0,WeatherDisplay:10.37,2013-01-13 15:40:00,
2013-01-13 09:50:00,37.6,36.3,29.93,North,6,8.0,15.0,95,0.03,RA,,2.41,0.0,WeatherDisplay:10.37,2013-01-13 15:50:00,
2013-01-13 10:00:00,37.7,36.4,29.95,NNW,333,7.0,13.0,95,0.03,RA,,2.44,0.0,WeatherDisplay:10.37,2013-01-13 16:00:00,
2013-01-13 10:10:00,37.7,36.4,29.93,North,5,8.0,12.0,95,0.02,RA,,2.46,0.0,WeatherDisplay:10.37,2013-01-13 16:10:00,
2013-01-13 10:20:00,37.6,36.3,29.93,NNE,24,6.0,14.0,95,0.01,RA,,2.47,0.0,WeatherDisplay:10.37,2013-01-13 16:20:00,
2013-01-13 10:30:00,37.6,36.3,29.92,NNE,19,8.0,13.0,95,0.01,RA,,2.48,0.0,WeatherDisplay:10.37,2013-01-13 16:30:00,
2013-01-13 10:40:00,37.7,36.4,29.93,NNE,22,6.0,12.0,95,0.01,RA,,2.49,0.0,WeatherDisplay:10.37,2013-01-13 16:40:00,
2013-01-13 10:50:00,37.7,36.4,29.94,NNW,346,6.0,13.0,95,0.02,RA,,2.51,0.0,WeatherDisplay:10.37,2013-01-13 16:50:00,
2013-01-13 11:00:00,37.5,36.2,29.95,NNW,347,13.0,15.0,95,0.03,RA,,2.54,0.0,WeatherDisplay:10.37,2013-01-13 17:00:00,
2013-01-13 11:10:00,37.4,36.1,29.95,NNW,343,9.0,16.0,95,0.03,RA,,2.57,0.0,WeatherDisplay:10.37,2013-01-13 17:10:00,
2013-01-13 11:20:00,36.8,35.5,29.93,North,357,9.0,15.0,95,0.03,RA,,2.60,0.0,WeatherDisplay:10.37,2013-01-13 17:20:00,
2013-01-13 11:30:00,36.3,35.0,29.93,North,352,10.0,17.0,95,0.02,RA,,2.62,0.0,WeatherDisplay:10.37,2013-01-13 17:30:00,
2013-01-13 11:40:00,36.2,34.9,29.94,NNW,340,10.0,20.0,95,0.01,RA,,2.63,0.0,WeatherDisplay:10.37,2013-01-13 17:40:00,
2013-01-13 11:50:00,35.9,34.3,29.93,NNW,338,10.0,20.0,94,0.02,RA,,2.65,0.0,WeatherDisplay:10.37,2013-01-13 17:50:00,
2013-01-13 12:00:00,35.7,34.4,29.93,North,357,9.0,20.0,95,0.04,RA,,2.69,0.0,WeatherDisplay:10.37,2013-01-13 18:00:00,
2013-01-13 12:10:00,35.4,33.9,29.98,NNW,332,10.0,26.0,94,0.02,RA,,2.71,0.0,WeatherDisplay:10.37,2013-01-13 18:10:00,
2013-01-13 12:20:00,34.5,33.0,29.95,NNW,328,14.0,23.0,94,0.01,RA,,2.72,0.0,WeatherDisplay:10.37,2013-01-13 18:20:00,
2013-01-13 12:30:00,34.2,32.7,29.95,NNW,335,9.0,17.0,94,0.00,OVC,,2.72,0.0,WeatherDisplay:10.37,2013-01-13 18:30:00,
2013-01-13 12:40:00,33.9,32.1,29.97,NNW,330,12.0,16.0,93,0.00,OVC,,2.72,0.0,WeatherDisplay:10.37,2013-01-13 18:40:00,
2013-01-13 12:50:00,33.8,32.3,29.99,NNW,336,10.0,17.0,94,0.00,OVC,,2.72,0.0,WeatherDisplay:10.37,2013-01-13 18:50:00,
2013-01-13 13:00:00,33.8,32.3,29.97,NNW,341,9.0,16.0,94,0.00,OVC,,2.72,0.0,WeatherDisplay:10.37,2013-01-13 19:00:00,
2013-01-13 13:10:00,33.8,31.9,29.96,NNW,341,10.0,17.0,93,0.00,OVC,,2.72,0.0,WeatherDisplay:10.37,2013-01-13 19:10:00,
2013-01-13 13:20:00,33.6,32.0,29.96,NNW,347,10.0,16.0,94,0.00,OVC,,2.72,0.0,WeatherDisplay:10.37,2013-01-13 19:20:00,
2013-01-13 13:30:00,33.6,32.1,29.97,North,350,9.0,14.0,94,0.00,OVC,,2.72,0.0,WeatherDisplay:10.37,2013-01-13 19:30:00,
2013-01-13 13:40:00,33.7,31.9,29.99,NNW,343,8.0,21.0,93,0.00,OVC,,2.72,0.0,WeatherDisplay:10.37,2013-01-13 19:40:00,
2013-01-13 13:50:00,33.6,32.1,29.99,North,353,7.0,15.0,94,0.01,RA,,2.73,0.0,WeatherDisplay:10.37,2013-01-13 19:50:00,
2013-01-13 14:00:00,33.7,32.2,29.98,North,355,6.0,13.0,94,0.00,OVC,,2.73,0.0,WeatherDisplay:10.37,2013-01-13 20:00:00,
2013-01-13 14:10:00,33.9,32.1,30.01,NNW,339,7.0,15.0,93,0.00,OVC,,2.73,0.0,WeatherDisplay:10.37,2013-01-13 20:10:00,
2013-01-13 14:20:00,33.9,31.8,30.01,NNW,337,14.0,21.0,92,0.00,OVC,,2.73,0.0,WeatherDisplay:10.37,2013-01-13 20:20:00,
2013-01-13 14:30:00,33.9,31.9,30.01,NNW,347,10.0,20.0,92,0.00,OVC,,2.73,0.0,WeatherDisplay:10.37,2013-01-13 20:30:00,
2013-01-13 14:40:00,33.9,31.8,30.04,NNW,337,9.0,20.0,92,0.00,OVC,,2.73,0.0,WeatherDisplay:10.37,2013-01-13 20:40:00,
2013-01-13 14:50:00,33.6,31.0,30.05,NNW,331,16.0,25.0,90,0.00,OVC,,2.73,0.0,WeatherDisplay:10.37,2013-01-13 20:50:00,
2013-01-13 15:00:00,33.5,31.1,30.05,NNW,338,15.0,25.0,91,0.00,OVC,,2.73,0.0,WeatherDisplay:10.37,2013-01-13 21:00:00,
2013-01-13 15:10:00,33.2,30.8,30.05,NNW,341,16.0,27.0,91,0.00,OVC,,2.73,0.0,WeatherDisplay:10.37,2013-01-13 21:10:00,
2013-01-13 15:20:00,32.7,30.4,30.07,NNW,328,14.0,25.0,91,0.00,OVC,,2.73,0.0,WeatherDisplay:10.37,2013-01-13 21:20:00,
2013-01-13 15:30:00,31.8,29.0,30.10,NNW,335,17.0,27.0,89,0.00,OVC,,2.73,0.0,WeatherDisplay:10.37,2013-01-13 21:30:00,
2013-01-13 15:40:00,31.7,28.8,30.11,NNW,342,14.0,22.0,89,0.00,OVC,,2.73,0.0,WeatherDisplay:10.37,2013-01-13 21:40:00,
2013-01-13 15:50:00,31.7,29.1,30.12,NNW,340,12.0,21.0,90,0.00,OVC,,2.73,0.0,WeatherDisplay:10.37,2013-01-13 21:50:00,
2013-01-13 16:00:00,31.9,29.3,30.11,NNW,336,10.0,18.0,90,0.00,OVC,,2.73,0.0,WeatherDisplay:10.37,2013-01-13 22:00:00,
2013-01-13 16:10:00,31.8,29.5,30.12,NNW,338,9.0,18.0,91,0.00,OVC,,2.73,0.0,WeatherDisplay:10.37,2013-01-13 22:10:00,
2013-01-13 16:20:00,32.1,29.8,30.14,NNW,331,8.0,14.0,91,0.00,OVC,,2.73,0.0,WeatherDisplay:10.37,2013-01-13 22:20:00,
2013-01-13 16:30:00,32.2,29.9,30.14,North,352,7.0,15.0,91,0.00,OVC,,2.73,0.0,WeatherDisplay:10.37,2013-01-13 22:30:00,
2013-01-13 16:40:00,32.4,29.8,30.14,NNW,347,10.0,17.0,90,0.00,OVC,,2.73,0.0,WeatherDisplay:10.37,2013-01-13 22:40:00,
2013-01-13 16:50:00,32.3,29.4,30.15,NNW,333,10.0,17.0,89,0.00,OVC,,2.73,0.0,WeatherDisplay:10.37,2013-01-13 22:50:00,
2013-01-13 17:00:00,32.3,29.4,30.16,NNW,333,8.0,15.0,89,0.00,OVC,,2.73,0.0,WeatherDisplay:10.37,2013-01-13 23:00:00,
2013-01-13 17:10:00,32.3,29.4,30.16,NNW,329,10.0,16.0,89,0.00,OVC,,2.73,0.0,WeatherDisplay:10.37,2013-01-13 23:10:00,
2013-01-13 17:20:00,32.1,28.7,30.17,NNW,328,8.0,18.0,87,0.00,OVC,,2.73,0.0,WeatherDisplay:10.37,2013-01-13 23:20:00,
2013-01-13 17:30:00,31.9,28.5,30.17,NNW,347,8.0,17.0,87,0.00,OVC,,2.73,0.0,WeatherDisplay:10.37,2013-01-13 23:30:00,
2013-01-13 17:40:00,31.9,28.5,30.17,NNW,336,10.0,18.0,87,0.00,OVC,,2.73,0.0,WeatherDisplay:10.37,2013-01-13 23:40:00,
2013-01-13 17:50:00,31.8,28.1,30.17,NNW,333,8.0,18.0,86,0.00,OVC,,2.73,0.0,WeatherDisplay:10.37,2013-01-13 23:50:00,
2013-01-13 18:00:00,31.7,28.0,30.17,NNW,339,10.0,20.0,86,0.00,OVC,,2.73,0.0,WeatherDisplay:10.37,2013-01-14 00:00:00,
2013-01-13 18:10:00,31.6,27.3,30.18,NNW,342,13.0,20.0,84,0.00,OVC,,2.73,0.0,WeatherDisplay:10.37,2013-01-14 00:10:00,
2013-01-13 18:20:00,31.5,27.2,30.18,NNW,340,10.0,18.0,84,0.00,OVC,,2.73,0.0,WeatherDisplay:10.37,2013-01-14 00:20:00,
2013-01-13 18:30:00,31.3,27.0,30.18,NNW,331,10.0,20.0,84,0.00,OVC,,2.73,0.0,WeatherDisplay:10.37,2013-01-14 00:30:00,
2013-01-13 18:40:00,31.1,27.1,30.18,NNW,333,7.0,14.0,85,0.00,OVC,,2.73,0.0,WeatherDisplay:10.37,2013-01-14 00:40:00,
2013-01-13 18:50:00,30.9,26.9,30.19,NNW,336,9.0,16.0,85,0.00,OVC,,2.73,0.0,WeatherDisplay:10.37,2013-01-14 00:50:00,
2013-01-13 19:00:00,30.7,27.0,30.20,NNW,337,7.0,14.0,86,0.00,OVC,,2.73,0.0,WeatherDisplay:10.37,2013-01-14 01:00:00,
2013-01-13 19:10:00,30.6,26.9,30.20,NNW,341,7.0,13.0,86,0.00,OVC,,2.73,0.0,WeatherDisplay:10.37,2013-01-14 01:10:00,
2013-01-13 19:20:00,30.3,26.1,30.20,NNW,341,9.0,17.0,84,0.00,OVC,,2.73,0.0,WeatherDisplay:10.37,2013-01-14 01:20:00,
2013-01-13 19:30:00,30.2,26.2,30.21,NNW,338,7.0,16.0,85,0.00,OVC,,2.73,0.0,WeatherDisplay:10.37,2013-01-14 01:30:00,
2013-01-13 19:40:00,30.0,26.0,30.21,NNW,340,10.0,14.0,85,0.00,OVC,,2.73,0.0,WeatherDisplay:10.37,2013-01-14 01:40:00,
2013-01-13 19:50:00,29.9,26.0,30.21,NNW,339,7.0,15.0,85,0.00,OVC,,2.73,0.0,WeatherDisplay:10.37,2013-01-14 01:50:00,
2013-01-13 20:00:00,29.8,26.1,30.21,NNW,343,7.0,12.0,86,0.00,OVC,,2.73,0.0,WeatherDisplay:10.37,2013-01-14 02:00:00,
2013-01-13 20:10:00,29.8,25.6,30.22,North,355,7.0,14.0,84,0.00,OVC,,2.73,0.0,WeatherDisplay:10.37,2013-01-14 02:10:00,
2013-01-13 20:20:00,29.6,25.4,30.22,North,2,7.0,12.0,84,0.00,OVC,,2.73,0.0,WeatherDisplay:10.37,2013-01-14 02:20:00,
2013-01-13 20:30:00,29.4,25.2,30.22,North,7,8.0,14.0,84,0.00,OVC,,2.73,0.0,WeatherDisplay:10.37,2013-01-14 02:30:00,
2013-01-13 20:40:00,29.3,25.1,30.22,North,6,9.0,15.0,84,0.00,OVC,,2.73,0.0,WeatherDisplay:10.37,2013-01-14 02:40:00,
2013-01-13 20:50:00,29.2,25.3,30.23,North,5,5.0,13.0,85,0.00,OVC,,2.73,0.0,WeatherDisplay:10.37,2013-01-14 02:50:00,
2013-01-13 21:00:00,29.0,25.1,30.23,North,0,6.0,12.0,85,0.00,OVC,,2.73,0.0,WeatherDisplay:10.37,2013-01-14 03:00:00,
2013-01-13 21:10:00,28.9,25.2,30.24,North,356,6.0,10.0,86,0.00,OVC,,2.73,0.0,WeatherDisplay:10.37,2013-01-14 03:10:00,
2013-01-13 21:20:00,28.7,25.0,30.24,North,360,6.0,12.0,86,0.00,OVC,,2.73,0.0,WeatherDisplay:10.37,2013-01-14 03:20:00,
2013-01-13 21:30:00,28.5,25.1,30.25,NNE,26,2.0,9.0,87,0.00,OVC,,2.73,0.0,WeatherDisplay:10.37,2013-01-14 03:30:00,
2013-01-13 21:40:00,28.3,24.1,30.25,NNE,18,8.0,13.0,84,0.00,OVC,,2.73,0.0,WeatherDisplay:10.37,2013-01-14 03:40:00,
2013-01-13 21:50:00,28.2,23.7,30.26,NNE,20,7.0,12.0,83,0.00,OVC,,2.73,0.0,WeatherDisplay:10.37,2013-01-14 03:50:00,
2013-01-13 22:00:00,28.0,23.5,30.26,NNE,16,5.0,12.0,83,0.00,OVC,,2.73,0.0,WeatherDisplay:10.37,2013-01-14 04:00:00,
2013-01-13 22:10:00,27.7,23.5,30.27,North,7,3.0,6.0,84,0.00,OVC,,2.73,0.0,WeatherDisplay:10.37,2013-01-14 04:10:00,
2013-01-13 22:20:00,27.6,23.1,30.27,North,357,5.0,12.0,83,0.00,OVC,,2.73,0.0,WeatherDisplay:10.37,2013-01-14 04:20:00,
2013-01-13 22:30:00,27.4,22.9,30.27,North,9,5.0,12.0,83,0.00,OVC,,2.73,0.0,WeatherDisplay:10.37,2013-01-14 04:30:00,
2013-01-13 22:40:00,27.2,22.7,30.28,NNE,13,5.0,12.0,83,0.00,OVC,,2.73,0.0,WeatherDisplay:10.37,2013-01-14 04:40:00,
2013-01-13 22:50:00,27.0,22.6,30.28,North,352,7.0,12.0,83,0.00,OVC,,2.73,0.0,WeatherDisplay:10.37,2013-01-14 04:50:00,
2013-01-13 23:10:00,26.7,22.5,30.29,North,3,7.0,12.0,84,0.00,OVC,,2.73,0.0,WeatherDisplay:10.37,2013-01-14 05:10:00,
2013-01-13 23:20:00,26.6,22.4,30.28,North,357,8.0,14.0,84,0.00,OVC,,2.73,0.0,WeatherDisplay:10.37,2013-01-14 05:20:00,
2013-01-13 23:30:00,26.4,22.2,30.28,North,10,7.0,17.0,84,0.00,OVC,,2.73,0.0,WeatherDisplay:10.37,2013-01-14 05:30:00,
2013-01-13 23:40:00,26.2,22.0,30.29,North,351,8.0,12.0,84,0.00,OVC,,2.73,0.0,WeatherDisplay:10.37,2013-01-14 05:40:00,
2013-01-13 23:50:00,26.1,21.9,30.30,North,9,7.0,12.0,84,0.00,OVC,,2.73,0.0,WeatherDisplay:10.37,2013-01-14 05:50:00,